Olive Branch, MS

7:21 PM CDT on May 22, 2018 (GMT -0500)
Olive Branch

Weather History for KOLV - November, 2013

Change the Weather History Date:

Sunday, November 3, 2013

  Actual Average (KMEM) Record (KMEM)
Temperature  
Mean Temperature 47 °F -  
Max Temperature 59 °F 65 °F 85 °F (2016)
Min Temperature 35 °F 47 °F 20 °F (1951)
Degree Days  
Heating Degree Days 18    
Moisture  
Dew Point 40 °F    
Average Humidity 88    
Maximum Humidity 100    
Minimum Humidity 45    
Precipitation  
Precipitation 0.00 in - - ()
Sea Level Pressure  
Sea Level Pressure 30.24 in    
Wind  
Wind Speed 1 mph (East)    
Max Wind Speed 8 mph    
Max Gust Speed -    
Visibility 10 miles    
Events      
Averages and records for this station are not official NWS values.
T = Trace of Precipitation, MM = Missing Value Source: NWS Daily Summary

Daily Weather History Graph

Daily Weather History Graph

Search for Another Location

Airport or City:

Astronomy

Nov. 03, 2013 Rise Set
Actual Time 6:22 AM CST 5:02 PM CST
Civil Twilight 5:55 AM CST 5:28 PM CST
Nautical Twilight 5:25 AM CST 5:58 PM CST
Astronomical Twilight 4:56 AM CST 6:28 PM CST
Moon 6:25 AM CST (11/3) 5:18 PM CST (11/3)
Length of Visible Light 11h 33m
Length of Day
10h 40m
New Moon, 0% of the Moon is Illuminated
Nov 3
New Moon
Nov 9
First Quarter
Nov 17
Full
Nov 25
Last Quarter
Dec 2
New

Hourly Weather History & Observations

Time (CST) Temp. Windchill Dew Point Humidity Pressure Visibility Wind Dir Wind Speed Gust Speed Precip Events Conditions
12:15 AM 42.8 °F - 42.8 °F 100% 30.21 in 10.0 mi Calm Calm - 0.00 in   Clear
12:35 AM 42.8 °F - 42.8 °F 100% 30.21 in 10.0 mi Calm Calm - 0.00 in   Scattered Clouds
12:55 AM 42.8 °F - 42.8 °F 100% 30.22 in 10.0 mi Calm Calm - 0.00 in   Overcast
1:15 AM 42.8 °F - 42.8 °F 100% 30.22 in 10.0 mi Calm Calm - 0.00 in   Overcast
1:35 AM 42.8 °F - 42.8 °F 100% 30.22 in 10.0 mi Calm Calm - 0.00 in   Overcast
1:55 AM 41.0 °F - 41.0 °F 100% 30.22 in 10.0 mi Calm Calm - 0.00 in   Overcast
1:15 AM 41.0 °F - 41.0 °F 100% 30.23 in 9.0 mi Calm Calm - 0.00 in   Scattered Clouds
1:35 AM 39.2 °F - 39.2 °F 100% 30.22 in 10.0 mi Calm Calm - 0.00 in   Clear
1:55 AM 39.2 °F - 39.2 °F 100% 30.22 in 9.0 mi Calm Calm - 0.00 in   Mostly Cloudy
2:15 AM 39.2 °F - 39.2 °F 100% 30.22 in 10.0 mi Calm Calm - 0.00 in   Overcast
2:35 AM 39.2 °F - 39.2 °F 100% 30.23 in 8.0 mi Calm Calm - 0.00 in   Overcast
2:55 AM 39.2 °F - 39.2 °F 100% 30.22 in 10.0 mi Calm Calm - 0.00 in   Overcast
3:15 AM 39.2 °F - 39.2 °F 100% 30.23 in 10.0 mi Calm Calm - 0.00 in   Scattered Clouds
3:35 AM 39.2 °F - 39.2 °F 100% 30.23 in 10.0 mi Calm Calm - 0.00 in   Partly Cloudy
3:55 AM 39.2 °F - 39.2 °F 100% 30.24 in 10.0 mi Calm Calm - 0.00 in   Mostly Cloudy
4:15 AM 37.4 °F - 37.4 °F 100% 30.25 in 9.0 mi Calm Calm - 0.00 in   Overcast
4:35 AM 37.4 °F - 37.4 °F 100% 30.26 in 10.0 mi Calm Calm - 0.00 in   Overcast
4:55 AM 37.4 °F - 37.4 °F 100% 30.26 in 10.0 mi Calm Calm - 0.00 in   Scattered Clouds
5:15 AM 37.4 °F - 37.4 °F 100% 30.27 in 10.0 mi Calm Calm - 0.00 in   Partly Cloudy
5:35 AM 35.6 °F - 35.6 °F 100% 30.27 in 10.0 mi Calm Calm - 0.00 in   Mostly Cloudy
6:50 AM 37.4 °F - 37.4 °F 100% 30.30 in 10.0 mi Calm Calm - N/A   Clear
7:50 AM 44.6 °F 43.1 °F 44.6 °F 100% 30.32 in 10.0 mi East 3.5 mph - N/A   Clear
8:50 AM 48.2 °F - 44.6 °F 87% 30.31 in 10.0 mi East 5.8 mph - N/A   Clear
9:50 AM 51.8 °F - 41.0 °F 67% 30.32 in 10.0 mi East 5.8 mph - N/A   Clear
10:50 AM 53.6 °F - 37.4 °F 54% 30.31 in 10.0 mi East 5.8 mph - N/A   Partly Cloudy
11:50 AM 57.2 °F - 37.4 °F 48% 30.28 in 10.0 mi NE 8.1 mph - N/A   Clear
12:50 PM 57.2 °F - 37.4 °F 48% 30.24 in 10.0 mi ENE 6.9 mph - N/A   Clear
1:50 PM 59.0 °F - 39.2 °F 48% 30.23 in 10.0 mi Calm Calm - N/A   Clear
2:50 PM 59.0 °F - 37.4 °F 45% 30.21 in 10.0 mi East 5.8 mph - N/A   Clear
3:50 PM 59.0 °F - 37.4 °F 45% 30.18 in 10.0 mi ESE 6.9 mph - N/A   Clear
4:50 PM 55.4 °F - 37.4 °F 51% 30.18 in 10.0 mi ESE 3.5 mph - N/A   Clear
5:55 PM 50.0 °F - 39.2 °F 66% 30.21 in 10.0 mi Calm Calm - N/A   Clear
6:55 PM 46.4 °F - 42.8 °F 87% 30.21 in 10.0 mi Calm Calm - N/A   Clear
7:50 PM 46.4 °F - 41.0 °F 81% 30.22 in 10.0 mi Calm Calm - N/A   Clear
7:55 PM 46.4 °F - 42.8 °F 87% 30.22 in 10.0 mi Calm Calm - 0.00 in   Clear
8:15 PM 44.6 °F - 42.8 °F 93% 30.23 in 10.0 mi Calm Calm - 0.00 in   Clear
8:35 PM 42.8 °F - 42.8 °F 100% 30.23 in 10.0 mi Calm Calm - 0.00 in   Clear
8:55 PM 42.8 °F - 42.8 °F 100% 30.23 in 9.0 mi Calm Calm - 0.00 in   Partly Cloudy
9:15 PM 42.8 °F - 42.8 °F 100% 30.23 in 10.0 mi Calm Calm - 0.00 in   Mostly Cloudy
9:35 PM 42.8 °F - 42.8 °F 100% 30.23 in 9.0 mi Calm Calm - 0.00 in   Overcast
9:55 PM 44.6 °F - 42.8 °F 93% 30.23 in 9.0 mi Calm Calm - 0.00 in   Overcast
10:15 PM 44.6 °F 41.4 °F 42.8 °F 93% 30.22 in 10.0 mi East 5.8 mph - 0.00 in   Overcast
10:35 PM 44.6 °F - 42.8 °F 93% 30.22 in 9.0 mi Calm Calm - 0.00 in   Overcast
10:55 PM 42.8 °F - 42.8 °F 100% 30.23 in 10.0 mi Calm Calm - 0.00 in   Overcast